When you browse on this site, cookies collect data to enhance your experience and personalize the content and advertising you see.
Visit our Privacy Policy to learn more. By continuing to use the site, you agree to this use of cookies and data.
EN

Hourly Weather Dmitriadovka

Today, 19 September, Saturday

Time Temperature Precipitation Wind Pressure Humidity
00:00 +13°C° 0 mm 6 mps 758 mmHg 50%
01:00 +11°C° 0 mm 6 mps 759 mmHg 54%
02:00 +10°C° 0 mm 6 mps 759 mmHg 57%
03:00 +10°C° 0 mm 5 mps 759 mmHg 60%
04:00 +9°C° 0 mm 6 mps 760 mmHg 63%
05:00 +9°C° 0 mm 6 mps 760 mmHg 67%
06:00 +9°C° 0 mm 7 mps 760 mmHg 70%
07:00 +10°C° 0 mm 7 mps 761 mmHg 64%
08:00 +12°C° 0 mm 7 mps 761 mmHg 58%
09:00 +14°C° 0 mm 7 mps 761 mmHg 53%
10:00 +15°C° 0 mm 6 mps 761 mmHg 48%
11:00 +17°C° 0 mm 6 mps 761 mmHg 43%
12:00 +19°C° 0 mm 6 mps 761 mmHg 38%
13:00 +20°C° 0 mm 6 mps 761 mmHg 37%
14:00 +20°C° 0 mm 6 mps 761 mmHg 37%
15:00 +21°C° 0 mm 5 mps 761 mmHg 36%
16:00 +20°C° 0 mm 5 mps 761 mmHg 37%
17:00 +20°C° 0 mm 5 mps 761 mmHg 39%
18:00 +20°C° 0 mm 5 mps 761 mmHg 40%
19:00 +18°C° 0 mm 4 mps 761 mmHg 43%
20:00 +17°C° 0 mm 4 mps 762 mmHg 46%
21:00 +15°C° 0 mm 4 mps 762 mmHg 49%
22:00 +14°C° 0 mm 4 mps 762 mmHg 50%
23:00 +14°C° 0 mm 3 mps 762 mmHg 51%

Tomorrow, 20 September, Sunday

Time Temperature Precipitation Wind Pressure Humidity
00:00 +13°C° 0 mm 3 mps 762 mmHg 52%
01:00 +13°C° 0 mm 3 mps 762 mmHg 53%
02:00 +13°C° 0 mm 3 mps 761 mmHg 54%
03:00 +13°C° 0 mm 2 mps 761 mmHg 55%
04:00 +12°C° 0 mm 3 mps 761 mmHg 57%
05:00 +12°C° 0 mm 3 mps 761 mmHg 58%
06:00 +12°C° 0 mm 3 mps 762 mmHg 60%
07:00 +13°C° 0 mm 4 mps 762 mmHg 53%
08:00 +15°C° 0 mm 4 mps 762 mmHg 45%
09:00 +17°C° 0 mm 5 mps 762 mmHg 38%
10:00 +19°C° 0 mm 5 mps 762 mmHg 34%
11:00 +21°C° 0 mm 5 mps 762 mmHg 31%
12:00 +22°C° 0 mm 4 mps 762 mmHg 27%
13:00 +23°C° 0 mm 5 mps 762 mmHg 26%
14:00 +23°C° 0 mm 5 mps 761 mmHg 26%
15:00 +25°C° 0 mm 5 mps 761 mmHg 25%
16:00 +23°C° 0 mm 4 mps 762 mmHg 27%
17:00 +22°C° 0 mm 4 mps 762 mmHg 29%
18:00 +21°C° 0 mm 4 mps 762 mmHg 30%
19:00 +19°C° 0 mm 4 mps 763 mmHg 34%
20:00 +17°C° 0 mm 4 mps 763 mmHg 37%
21:00 +15°C° 0 mm 4 mps 764 mmHg 40%
22:00 +14°C° 0 mm 5 mps 764 mmHg 42%
23:00 +13°C° 0 mm 5 mps 764 mmHg 45%

Day after tomorrow, 21 September, Monday

Time Temperature Precipitation Wind Pressure Humidity
00:00 +12°C° 0 mm 5 mps 764 mmHg 47%
01:00 +12°C° 0 mm 4 mps 765 mmHg 48%
02:00 +11°C° 0 mm 4 mps 765 mmHg 49%
03:00 +11°C° 0 mm 4 mps 765 mmHg 50%
04:00 +10°C° 0 mm 4 mps 765 mmHg 51%
05:00 +10°C° 0 mm 3 mps 765 mmHg 52%
06:00 +9°C° 0 mm 3 mps 766 mmHg 53%
07:00 +11°C° 0 mm 3 mps 766 mmHg 47%
08:00 +13°C° 0 mm 3 mps 766 mmHg 41%
09:00 +16°C° 0 mm 3 mps 766 mmHg 35%
10:00 +18°C° 0 mm 3 mps 765 mmHg 32%
11:00 +19°C° 0 mm 3 mps 765 mmHg 28%
12:00 +20°C° 0 mm 3 mps 765 mmHg 24%
13:00 +21°C° 0 mm 3 mps 765 mmHg 22%
14:00 +22°C° 0 mm 3 mps 764 mmHg 20%
15:00 +24°C° 0 mm 3 mps 764 mmHg 19%
16:00 +23°C° 0 mm 2 mps 763 mmHg 20%
17:00 +21°C° 0 mm 2 mps 763 mmHg 22%
18:00 +20°C° 0 mm 2 mps 763 mmHg 23%
19:00 +18°C° 0 mm 2 mps 763 mmHg 25%
20:00 +17°C° 0 mm 3 mps 764 mmHg 27%
21:00 +16°C° 0 mm 3 mps 764 mmHg 28%
22:00 +14°C° 0 mm 3 mps 764 mmHg 29%
23:00 +14°C° 0 mm 3 mps 764 mmHg 31%

22 September, Tuesday

Time Temperature Precipitation Wind Pressure Humidity
00:00 +13°C° 0 mm 3 mps 764 mmHg 32%
01:00 +12°C° 0 mm 3 mps 764 mmHg 33%
02:00 +12°C° 0 mm 3 mps 763 mmHg 34%
03:00 +12°C° 0 mm 3 mps 763 mmHg 35%
04:00 +11°C° 0 mm 3 mps 764 mmHg 36%
05:00 +11°C° 0 mm 3 mps 764 mmHg 37%
06:00 +11°C° 0 mm 3 mps 764 mmHg 39%
07:00 +13°C° 0 mm 3 mps 764 mmHg 34%
08:00 +16°C° 0 mm 3 mps 764 mmHg 30%
09:00 +18°C° 0 mm 4 mps 765 mmHg 25%
10:00 +20°C° 0 mm 3 mps 764 mmHg 23%
11:00 +22°C° 0 mm 3 mps 764 mmHg 21%
12:00 +24°C° 0 mm 3 mps 764 mmHg 18%
13:00 +25°C° 0 mm 3 mps 764 mmHg 18%
14:00 +26°C° 0 mm 3 mps 764 mmHg 17%
15:00 +26°C° 0 mm 3 mps 763 mmHg 16%
16:00 +25°C° 0 mm 3 mps 763 mmHg 18%
17:00 +24°C° 0 mm 3 mps 763 mmHg 19%
18:00 +22°C° 0 mm 3 mps 763 mmHg 21%
19:00 +21°C° 0 mm 3 mps 763 mmHg 23%
20:00 +19°C° 0 mm 4 mps 763 mmHg 25%
21:00 +18°C° 0 mm 4 mps 764 mmHg 27%
22:00 +17°C° 0 mm 4 mps 764 mmHg 28%
23:00 +15°C° 0 mm 4 mps 764 mmHg 30%

23 September, Wednesday

Time Temperature Precipitation Wind Pressure Humidity
00:00 +15°C° 0 mm 4 mps 764 mmHg 31%
01:00 +14°C° 0 mm 4 mps 763 mmHg 32%
02:00 +14°C° 0 mm 4 mps 763 mmHg 33%
03:00 +13°C° 0 mm 4 mps 763 mmHg 34%
04:00 +13°C° 0 mm 4 mps 763 mmHg 35%
05:00 +12°C° 0 mm 4 mps 763 mmHg 36%
06:00 +12°C° 0 mm 5 mps 763 mmHg 38%
07:00 +14°C° 0 mm 5 mps 763 mmHg 36%
08:00 +16°C° 0 mm 5 mps 763 mmHg 34%
09:00 +19°C° 0 mm 6 mps 763 mmHg 32%
10:00 +21°C° 0 mm 6 mps 763 mmHg 28%
11:00 +23°C° 0 mm 6 mps 762 mmHg 24%
12:00 +26°C° 0 mm 6 mps 762 mmHg 20%
13:00 +27°C° 0 mm 6 mps 761 mmHg 21%
14:00 +27°C° 0 mm 6 mps 761 mmHg 21%
15:00 +28°C° 0 mm 6 mps 760 mmHg 22%
16:00 +27°C° 0 mm 6 mps 760 mmHg 22%
17:00 +26°C° 0 mm 5 mps 760 mmHg 23%
18:00 +25°C° 0 mm 5 mps 760 mmHg 23%
19:00 +23°C° 0 mm 5 mps 760 mmHg 25%
20:00 +22°C° 0 mm 6 mps 760 mmHg 26%
21:00 +21°C° 0 mm 6 mps 760 mmHg 28%
22:00 +20°C° 0 mm 6 mps 760 mmHg 30%
23:00 +20°C° 0 mm 5 mps 759 mmHg 32%

24 September, Thursday

Time Temperature Precipitation Wind Pressure Humidity
00:00 +19°C° 0 mm 5 mps 759 mmHg 34%
01:00 +17°C° 0 mm 5 mps 759 mmHg 38%
02:00 +17°C° 0 mm 5 mps 759 mmHg 42%
03:00 +16°C° 0 mm 5 mps 759 mmHg 45%
04:00 +15°C° 0 mm 5 mps 759 mmHg 48%
05:00 +15°C° 0 mm 5 mps 759 mmHg 51%
06:00 +14°C° 0 mm 6 mps 759 mmHg 54%
07:00 +15°C° 0 mm 6 mps 759 mmHg 53%
08:00 +16°C° 0 mm 6 mps 759 mmHg 52%
09:00 +17°C° 0 mm 6 mps 759 mmHg 52%
10:00 +20°C° 0 mm 6 mps 759 mmHg 49%
11:00 +22°C° 0 mm 5 mps 759 mmHg 47%
12:00 +25°C° 0 mm 5 mps 758 mmHg 44%
13:00 +26°C° 0 mm 5 mps 758 mmHg 43%
14:00 +27°C° 0 mm 4 mps 758 mmHg 42%
15:00 +28°C° 0 mm 3 mps 758 mmHg 41%
16:00 +28°C° 0 mm 3 mps 758 mmHg 43%
17:00 +27°C° 0 mm 3 mps 758 mmHg 45%
18:00 +27°C° 0 mm 2 mps 757 mmHg 48%
19:00 +26°C° 0 mm 2 mps 757 mmHg 52%
20:00 +25°C° 0 mm 2 mps 758 mmHg 57%
21:00 +24°C° 0 mm 2 mps 758 mmHg 61%
22:00 +24°C° 0 mm 2 mps 758 mmHg 62%
23:00 +23°C° 0 mm 2 mps 758 mmHg 62%
Show more